GW1838 Weather Reports


Display with metric or nautical units.
time (UTC)temp
F
wind
direction
speed
MPH
gust
MPH
rain 1hr
in
rain 24hr
in
rain mn
in
humidity
%
barometer
mb
20260905032306 81 312 4.0 6.0 0.00 0.01 0.01 76 1009.7
20260905031805 81 334 3.0 5.0 0.00 0.01 0.01 77 1009.6
20260905030305 81 344 5.0 7.0 0.00 0.01 0.01 75 1009.5
20260905024805 81 353 6.0 12.0 0.00 0.01 0.01 75 1009.5
20260905023305 81 347 6.0 10.0 0.00 0.01 0.01 77 1009.5
20260905022306 81 329 3.0 5.0 0.00 0.01 0.01 78 1009.5
20260905021305 81 306 3.0 5.0 0.00 0.01 0.01 79 1009.6
20260905020805 81 300 3.0 3.0 0.00 0.01 0.01 79 1009.6
20260905020305 81 297 1.0 3.0 0.00 0.01 0.01 79 1009.7
20260905015805 81 297 0.0 2.0 0.00 0.01 0.01 79 1009.6
20260905015306 81 297 0.0 2.0 0.00 0.01 0.01 79 1009.7
20260905014805 81 297 1.0 3.0 0.00 0.01 0.01 79 1009.7
20260905014306 81 297 1.0 3.0 0.00 0.01 0.01 80 1009.7
20260905012306 81 272 2.0 3.0 0.00 0.01 0.01 80 1009.8
20260905010305 81 269 2.0 3.0 0.00 0.01 0.01 79 1009.6
20260905005805 82 272 1.0 3.0 0.00 0.01 0.01 79 1009.6
20260905003805 82 336 3.0 5.0 0.00 0.01 0.01 76 1009.3
20260905003304 82 333 3.0 6.0 0.00 0.01 0.01 76 1009.3
20260905002805 83 351 5.0 6.0 0.00 0.01 0.01 76 1009.1
20260905002306 83 350 5.0 6.0 0.00 0.01 0.01 76 1009.0
20260905001805 83 348 5.0 6.0 0.00 0.01 0.01 76 1009.0
20260905001305 83 348 5.0 6.0 0.00 0.01 0.01 76 1008.9
20260905000804 83 347 5.0 6.0 0.00 0.01 0.01 76 1009.1
20260905000305 83 346 5.0 7.0 0.00 0.01 0.01 75 1009.1
20260904235804 83 348 6.0 6.0 0.00 0.01 0.01 75 1009.1
20260904234804 83 343 5.0 6.0 0.00 0.01 0.01 76 1009.2
20260904234305 83 349 5.0 6.0 0.00 0.01 0.01 76 1009.1
20260904232306 84 349 5.0 7.0 0.00 0.01 0.01 74 1009.4
20260904230805 84 344 5.0 6.0 0.00 0.01 0.01 75 1009.5
20260904225804 84 323 2.0 3.0 0.00 0.01 0.01 75 1009.4
20260904225306 84 321 1.0 3.0 0.00 0.01 0.01 74 1009.3
20260904223304 85 346 3.0 5.0 0.00 0.01 0.01 73 1009.3
20260904222805 85 346 3.0 5.0 0.00 0.01 0.01 74 1009.3
20260904220805 85 227 2.0 3.0 0.00 0.01 0.01 72 1009.3
20260904220305 85 224 0.0 1.0 0.00 0.01 0.01 73 1009.3
20260904214805 85 212 1.0 5.0 0.00 0.01 0.01 77 1009.4
20260904214305 84 225 2.0 5.0 0.00 0.01 0.01 78 1009.5
20260904213804 84 228 3.0 7.0 0.00 0.01 0.01 79 1009.5
20260904212805 83 212 5.0 7.0 0.00 0.01 0.01 80 1009.4
20260904212306 83 189 2.0 9.0 0.00 0.01 0.01 80 1009.3
20260904210805 84 191 4.0 6.0 0.00 0.01 0.01 78 1009.3
20260904205805 83 196 3.0 7.0 0.00 0.01 0.01 78 1009.3
20260904205306 84 163 1.0 5.0 0.00 0.01 0.01 78 1009.5
20260904204805 84 205 2.0 7.0 0.00 0.01 0.01 77 1009.5
20260904201306 84 192 4.0 10.0 0.00 0.01 0.01 76 1009.8
20260904195804 83 210 3.0 9.0 0.00 0.01 0.01 79 1009.9
20260904194804 81 206 7.0 10.0 0.00 0.01 0.01 79 1010.2
20260904193805 82 201 8.0 14.0 0.00 0.01 0.01 79 1010.3
20260904193304 82 197 5.0 10.0 0.00 0.01 0.01 80 1010.3
20260904192804 81 215 7.0 10.0 0.00 0.01 0.01 80 1010.4
20260904192306 81 201 7.0 10.0 0.00 0.01 0.01 80 1010.4
20260904191305 82 201 5.0 9.0 0.00 0.01 0.01 79 1010.5
20260904190805 82 193 5.0 10.0 0.00 0.01 0.01 78 1010.4
20260904184805 83 183 7.0 12.0 0.00 0.01 0.01 76 1010.5
20260904184304 83 192 6.0 10.0 0.00 0.01 0.01 76 1010.6
20260904183805 83 202 3.0 7.0 0.00 0.01 0.01 78 1010.5
20260904183305 82 185 5.0 9.0 0.00 0.01 0.01 79 1010.6
20260904181805 83 184 3.0 6.0 0.00 0.01 0.01 76 1010.6
20260904181305 84 192 3.0 7.0 0.00 0.01 0.01 76 1010.6
20260904180804 83 148 3.0 7.0 0.00 0.01 0.01 77 1010.5
20260904180305 83 178 4.0 7.0 0.00 0.01 0.01 76 1010.6
20260904175306 85 166 3.0 6.0 0.00 0.01 0.01 73 1010.6
20260904174805 85 141 3.0 5.0 0.00 0.01 0.01 71 1010.6
20260904174305 84 107 4.0 6.0 0.00 0.01 0.01 71 1010.6
20260904173805 84 116 3.0 6.0 0.00 0.01 0.01 71 1010.6
20260904172305 85 157 3.0 6.0 0.00 0.01 0.01 73 1010.6
20260904171805 85 119 2.0 6.0 0.00 0.01 0.01 73 1010.6
20260904171304 85 100 4.0 7.0 0.00 0.01 0.01 72 1010.6
20260904165805 86 89 3.0 6.0 0.00 0.01 0.01 72 1010.4
20260904165305 86 85 4.0 7.0 0.00 0.01 0.01 70 1010.5
20260904164305 87 71 5.0 9.0 0.00 0.01 0.01 64 1010.6
20260904163804 87 74 5.0 9.0 0.00 0.01 0.01 64 1010.5
20260904162806 88 49 6.0 12.0 0.00 0.01 0.01 62 1010.6
20260904161804 87 16 6.0 15.0 0.00 0.01 0.01 61 1010.7
20260904155804 86 7 9.0 12.0 0.00 0.01 0.01 63 1010.8
20260904155306 86 20 9.0 15.0 0.00 0.01 0.01 64 1010.8
20260904153305 85 16 12.0 17.0 0.00 0.01 0.01 68 1010.9
20260904145306 84 10 9.0 16.0 0.00 0.01 0.01 72 1010.8
20260904143304 83 5 11.0 20.0 0.00 0.01 0.01 74 1010.8
20260904141805 82 5 10.0 15.0 0.00 0.01 0.01 76 1010.9
20260904140804 82 351 10.0 13.0 0.00 0.01 0.01 78 1010.9
20260904140304 82 350 11.0 15.0 0.00 0.01 0.01 77 1010.8
20260904135805 82 351 13.0 17.0 0.00 0.01 0.01 77 1010.8
20260904135306 82 347 13.0 16.0 0.00 0.01 0.01 78 1010.8
20260904132306 80 346 9.0 15.0 0.00 0.01 0.01 80 1010.5
20260904130804 79 330 10.0 16.0 0.00 0.01 0.01 81 1010.6
20260904125804 79 331 8.0 13.0 0.00 0.01 0.01 81 1010.6
20260904124805 79 326 9.0 14.0 0.00 0.01 0.01 81 1010.5
20260904124304 79 322 9.0 13.0 0.00 0.01 0.01 82 1010.5
20260904123805 79 317 7.0 13.0 0.00 0.01 0.01 82 1010.5
20260904123305 79 321 9.0 16.0 0.00 0.01 0.01 82 1010.6
20260904122804 78 313 7.0 17.0 0.00 0.01 0.01 83 1010.6
20260904121305 78 317 7.0 16.0 0.00 0.01 0.01 84 1010.6
20260904120805 77 297 8.0 16.0 0.00 0.01 0.01 85 1010.6
20260904115306 77 298 6.0 12.0 0.00 0.01 0.01 86 1010.3
20260904114805 77 291 6.0 15.0 0.00 0.01 0.01 87 1010.4
20260904114305 77 283 5.0 12.0 0.00 0.01 0.01 87 1010.4
20260904113805 76 279 3.0 12.0 0.00 0.01 0.01 87 1010.4
20260904112805 76 292 4.0 9.0 0.00 0.01 0.01 87 1010.2
20260904112306 76 276 5.0 10.0 0.00 0.01 0.01 87 1010.2
20260904111305 76 290 5.0 13.0 0.00 0.01 0.01 87 1010.2
20260904105804 76 271 3.0 12.0 0.00 0.01 0.01 87 1010.0
20260904105306 76 271 5.0 10.0 0.00 0.01 0.01 87 1010.0
20260904103304 77 276 5.0 12.0 0.00 0.02 0.01 87 1010.0
20260904102805 77 266 3.0 9.0 0.00 0.02 0.01 87 1010.0
20260904100804 77 262 3.0 7.0 0.00 0.06 0.01 88 1009.9
20260904095306 77 276 5.0 10.0 0.00 0.09 0.01 88 1009.7
20260904094805 77 259 5.0 12.0 0.00 0.10 0.01 88 1009.7
20260904091304 77 263 3.0 10.0 0.00 0.12 0.01 88 1009.8
20260904085805 78 272 3.0 8.0 0.00 0.13 0.01 88 1009.9
20260904085306 78 264 3.0 9.0 0.00 0.13 0.01 88 1010.0
20260904084804 78 275 3.0 12.0 0.00 0.13 0.01 88 1009.9
20260904082804 77 265 4.0 9.0 0.00 0.13 0.01 87 1009.9
20260904081804 78 244 3.0 10.0 0.00 0.13 0.01 86 1009.8
20260904075805 78 257 5.0 10.0 0.00 0.14 0.01 86 1009.8
20260904075306 77 259 5.0 12.0 0.00 0.14 0.01 87 1009.8
20260904074305 77 255 5.0 12.0 0.00 0.16 0.01 87 1009.7
20260904071804 78 236 3.0 7.0 0.00 0.30 0.01 86 1009.5
20260904071305 78 242 3.0 7.0 0.00 0.37 0.01 86 1009.5
20260904070804 78 232 5.0 8.0 0.00 0.45 0.01 86 1009.5
20260904065306 78 245 3.0 6.0 0.01 1.09 0.01 86 1009.6
20260904063804 78 239 2.0 7.0 0.01 1.10 0.01 86 1009.7
20260904060304 78 274 2.0 3.0 0.01 1.10 0.01 85 1010.4
20260904054804 79 264 1.0 3.0 0.00 1.09 0.00 84 1010.3
20260904054304 79 272 2.0 6.0 0.00 1.09 0.00 83 1010.8
20260904052804 79 263 2.0 3.0 0.00 1.09 0.00 82 1010.8
20260904052307 79 264 2.0 3.0 0.00 1.09 0.00 82 1010.7
20260904051804 79 263 2.0 3.0 0.00 1.09 0.00 82 1010.8
20260904051304 79 263 2.0 3.0 0.00 1.09 0.00 82 1010.8
20260904050804 79 267 2.0 6.0 0.00 1.09 0.00 82 1010.9
20260904045306 79 266 2.0 6.0 0.00 1.09 0.00 82 1010.9
20260904043304 79 243 3.0 6.0 0.00 1.09 0.00 82 1011.0
20260904042306 79 245 2.0 5.0 0.00 1.09 0.00 82 1011.1
20260904041804 79 240 2.0 3.0 0.00 1.09 0.00 82 1011.2
20260904034304 79 258 3.0 5.0 0.00 1.09 1.09 83 1011.8
20260904033804 79 255 3.0 7.0 0.00 1.09 1.09 83 1011.8